This is the latest recevied weather packets stored in our database for station/object KC8YYF. If no packets are shown the sender has not sent any weather packets the latest 10 day(s).
| Time | Temp. | Humidity | Pressure | Rain* | Wind** | Luminosity | Snow |
|---|---|---|---|---|---|---|---|
| 1777077155 | 21.11° C | 61% | 1008.2 hPa | 0 mm | - | 0 W/m² | - |
| 1777076850 | 21.11° C | 60% | 1008.2 hPa | 0 mm | - | 0 W/m² | - |
| 1777076546 | 21.11° C | 59% | 1008.3 hPa | 0 mm | - | 0 W/m² | - |
| 1777076242 | 21.11° C | 59% | 1008.1 hPa | 0 mm | - | 0 W/m² | - |
| 1777075938 | 21.67° C | 58% | 1008.1 hPa | 0 mm | - | 0 W/m² | - |
| 1777075634 | 22.22° C | 58% | 1008.1 hPa | 0 mm | - | 0 W/m² | - |
| 1777075330 | 22.22° C | 56% | 1008.1 hPa | 0 mm | - | 0 W/m² | - |
| 1777075027 | 22.78° C | 56% | 1008 hPa | 0 mm | - | 1 W/m² | - |
| 1777074722 | 22.78° C | 56% | 1008.1 hPa | 0 mm | - | 1 W/m² | - |
| 1777074416 | 22.78° C | 52% | 1008.2 hPa | 0 mm | - | 2 W/m² | - |
| 1777074114 | 23.33° C | 53% | 1008.1 hPa | 0 mm | - | 4 W/m² | - |
| 1777073810 | 23.33° C | 53% | 1008 hPa | 0 mm | - | 5 W/m² | - |
| 1777073505 | 23.89° C | 51% | 1008.2 hPa | 0 mm | - | 9 W/m² | - |
| 1777073201 | 24.44° C | 52% | 1008.1 hPa | 0 mm | - | 11 W/m² | - |
| 1777072898 | 24.44° C | 52% | 1008.1 hPa | 0 mm | - | 22 W/m² | - |
| 1777072598 | 25° C | 52% | 1008.1 hPa | 0 mm | - | 21 W/m² | - |
| 1777072292 | 25° C | 52% | 1007.7 hPa | 0 mm | - | 18 W/m² | - |
| 1777071987 | 25.56° C | 54% | 1007.9 hPa | 0 mm | - | 23 W/m² | - |
| 1777071683 | 25.56° C | 47% | 1007.9 hPa | 0 mm | - | 23 W/m² | - |
| 1777071379 | 26.67° C | 43% | 1007.8 hPa | 0 mm | - | 38 W/m² | - |
| 1777071074 | 26.67° C | 52% | 1007.7 hPa | 0 mm | - | 49 W/m² | - |
| 1777070771 | 26.67° C | 43% | 1007.9 hPa | 0 mm | - | 61 W/m² | - |
| 1777070468 | 27.22° C | 43% | 1007.9 hPa | 0 mm | - | 46 W/m² | - |
| 1777070167 | 27.22° C | 41% | 1007.9 hPa | 0 mm | - | 40 W/m² | - |
| 1777069862 | 27.22° C | 41% | 1007.9 hPa | 0 mm | - | 60 W/m² | - |
* Rain latest hour (hover to see other rain measurements)
** Current wind speed in m/s (hover to see current wind gust speed)